TimeEST,TemperatureF,Dew PointF,Humidity,Sea Level PressureIn,VisibilityMPH,Wind Direction,Wind SpeedMPH,Gust SpeedMPH,PrecipitationIn,Events,Conditions,WindDirDegrees,DateUTC
12:03 AM,24.8,17.6,74,29.95,5.0,NNW,12.7,20.7,0.00,Snow,Light Snow,330,2013-02-06 05:03:00
12:53 AM,23.0,12.9,65,30.02,10.0,NNW,15.0,-,0.00,,Overcast,340,2013-02-06 05:53:00
1:53 AM,19.0,10.0,68,30.05,10.0,WNW,6.9,-,N/A,,Partly Cloudy,300,2013-02-06 06:53:00
2:53 AM,19.0,10.9,71,30.09,10.0,West,4.6,-,N/A,,Overcast,280,2013-02-06 07:53:00
3:53 AM,18.0,10.9,74,30.10,10.0,West,3.5,-,N/A,,Scattered Clouds,260,2013-02-06 08:53:00
4:53 AM,14.0,9.0,80,30.14,10.0,West,5.8,-,N/A,,Clear,270,2013-02-06 09:53:00
5:53 AM,12.9,9.0,84,30.18,10.0,West,5.8,-,N/A,,Clear,270,2013-02-06 10:53:00
6:53 AM,12.0,7.0,80,30.20,10.0,Calm,Calm,-,N/A,,Clear,0,2013-02-06 11:53:00
7:53 AM,12.0,8.1,84,30.23,10.0,Calm,Calm,-,N/A,,Partly Cloudy,0,2013-02-06 12:53:00
8:53 AM,10.0,6.1,84,30.26,10.0,Calm,Calm,-,N/A,,Clear,0,2013-02-06 13:53:00
9:53 AM,18.0,12.9,81,30.27,10.0,Calm,Calm,-,N/A,,Clear,0,2013-02-06 14:53:00
10:53 AM,21.9,12.9,68,30.28,10.0,Calm,Calm,-,N/A,,Clear,0,2013-02-06 15:53:00
11:53 AM,25.0,12.9,60,30.30,10.0,WSW,6.9,-,N/A,,Clear,250,2013-02-06 16:53:00
12:53 PM,27.0,14.0,58,30.29,10.0,WSW,5.8,-,N/A,,Clear,240,2013-02-06 17:53:00
1:53 PM,28.0,15.1,58,30.28,10.0,WSW,4.6,-,N/A,,Clear,250,2013-02-06 18:53:00
2:53 PM,28.9,15.1,56,30.27,10.0,Variable,5.8,-,N/A,,Clear,0,2013-02-06 19:53:00
3:53 PM,28.9,15.1,56,30.25,10.0,Variable,6.9,-,N/A,,Clear,0,2013-02-06 20:53:00
4:53 PM,30.0,15.1,54,30.27,10.0,West,4.6,-,N/A,,Clear,260,2013-02-06 21:53:00
5:53 PM,27.0,15.1,61,30.30,10.0,Calm,Calm,-,N/A,,Clear,0,2013-02-06 22:53:00
6:53 PM,25.0,15.1,66,30.30,10.0,Calm,Calm,-,N/A,,Clear,0,2013-02-06 23:53:00
7:53 PM,23.0,15.1,72,30.31,10.0,SE,6.9,-,N/A,,Scattered Clouds,140,2013-02-07 00:53:00
8:53 PM,25.0,15.1,66,30.29,10.0,South,5.8,-,N/A,,Mostly Cloudy,170,2013-02-07 01:53:00
9:53 PM,25.0,16.0,69,30.27,10.0,SSE,5.8,-,N/A,,Overcast,160,2013-02-07 02:53:00
10:53 PM,26.1,16.0,66,30.27,10.0,SSE,4.6,-,N/A,,Overcast,150,2013-02-07 03:53:00
11:53 PM,26.1,17.1,69,30.28,10.0,Calm,Calm,-,N/A,,Overcast,0,2013-02-07 04:53:00